User: anonymous   Login
Location: Nitra
(0.0000°N, 18.0833°E)
Time: 22:00:57
(UTC+02:00)
Language:

JY1SAT - Orbit

View from above orbital plane
View from above orbital plane
View from above satellite
View from above satellite

Ground track
Ground track

The orbit data is extracted from the following two-line orbital elements,

1 43803U 18099AX  24106.14080651  .00010805  00000-0  74853-3 0  9997
2 43803  97.5257 166.2617 0011430 152.3796 207.8041 15.05764198293200
Epoch (UTC): 15 April 2024 03:22:45
Eccentricity: 0.0011430
inclination: 97.5257°
perigee height: 541 km
apogee height: 557 km
right ascension of ascending node: 166.2617°
argument of perigee: 152.3796°
revolutions per day: 15.05764198
mean anomaly at epoch: 207.8041°
orbit number at epoch: 29320

The dashed part of the orbit path shows where the satellite is in the earth's shadow,  

DLR